CW0005 Weather Reports


time (UTC)temp
F
wind
direction
speed
knots
gust
knots
rain 1hr
in
rain 24hr
in
rain mn
in
humidity
%
barometer
mb
20260507193014 67 13 0.0 3.5 0.00 0.02 0.02 45 1010.8
20260507191514 66 13 0.9 4.3 0.00 0.02 0.02 43 1010.9
20260507190014 66 13 0.9 3.5 0.00 0.02 0.02 47 1011.0
20260507184504 64 13 1.7 5.2 0.00 0.02 0.02 52 1011.1
20260507183008 63 13 1.7 5.2 0.00 0.02 0.02 51 1011.3
20260507181510 63 13 0.9 3.5 0.00 0.02 0.02 52 1011.4
20260507180015 61 13 0.9 4.3 0.00 0.02 0.02 57 1011.9
20260507174514 60 13 0.0 3.5 0.00 0.02 0.02 58 1012.1
20260507173004 59 13 0.0 3.5 0.00 0.02 0.02 63 1012.5
20260507171509 57 13 0.0 4.3 0.00 0.02 0.02 67 1012.7
20260507164517 55 13 0.0 1.7 0.00 0.02 0.02 67 1013.0
20260507163007 54 13 0.0 2.6 0.00 0.02 0.02 69 1013.3
20260507161509 53 13 0.0 2.6 0.00 0.02 0.02 72 1013.1
20260507160013 52 13 0.0 2.6 0.00 0.02 0.02 74 1013.1
20260507153025 51 13 0.0 2.6 0.00 0.02 0.02 76 1013.4
20260507151521 50 13 0.0 4.3 0.00 0.02 0.02 81 1013.5
20260507150008 49 13 0.0 2.6 0.01 0.02 0.02 85 1013.4
20260507144508 48 13 0.0 4.3 0.01 0.02 0.02 86 1013.7
20260507143019 46 13 0.0 0.0 0.01 0.02 0.02 84 1013.6
20260507141522 46 13 0.9 3.5 0.01 0.02 0.02 84 1013.4
20260507140032 46 13 0.0 2.6 0.00 0.01 0.01 83 1014.2
20260507134510 46 13 0.0 0.9 0.01 0.01 0.01 83 1014.3
20260507133014 45 13 0.0 1.7 0.01 0.01 0.01 81 1013.4
20260507130014 45 13 0.0 2.6 0.01 0.01 0.01 75 1013.4
20260507124521 44 13 0.0 2.6 0.00 0.00 0.00 70 1013.5
20260507123025 43 13 0.0 2.6 0.00 0.00 0.00 71 1013.0
20260507120004 41 13 0.9 3.5 0.00 0.00 0.00 72 1012.6
20260507114505 40 13 0.0 0.0 0.00 0.00 0.00 70 1012.6
20260507113005 40 13 0.0 0.0 0.00 0.00 0.00 68 1012.5
20260507110018 41 13 0.0 0.0 0.00 0.00 0.00 66 1012.7
20260507104505 41 13 0.0 0.0 0.00 0.00 0.00 66 1012.7
20260507103009 41 13 0.0 0.0 0.00 0.00 0.00 65 1012.9
20260507101520 42 13 0.0 0.0 0.00 0.00 0.00 63 1013.0
20260507100018 42 13 0.0 0.0 0.00 0.00 0.00 63 1013.1
20260507094518 42 13 0.0 0.0 0.00 0.00 0.00 64 1013.3
20260507093005 42 13 0.0 0.0 0.00 0.00 0.00 65 1013.6
20260507091508 42 13 0.0 0.0 0.00 0.00 0.00 65 1013.8
20260507090012 41 13 0.0 0.0 0.00 0.00 0.00 66 1014.2
20260507084516 41 13 0.0 0.9 0.00 0.00 0.00 67 1014.2
20260507083021 40 13 0.0 0.0 0.00 0.00 0.00 68 1014.3
20260507081521 39 13 0.0 0.0 0.00 0.00 0.00 70 1014.4
20260507080011 39 13 0.0 0.0 0.00 0.00 0.00 71 1014.6
20260507074515 39 13 0.0 0.0 0.00 0.00 0.00 72 1014.7
20260507073024 39 13 0.0 0.0 0.00 0.00 0.00 72 1014.9
20260507071516 39 13 0.0 0.0 0.00 0.00 0.00 70 1015.1
20260507070023 38 13 0.0 0.0 0.00 0.00 0.00 69 1015.1
20260507064512 39 13 0.0 0.0 0.00 0.00 0.00 68 1015.4
20260507061521 39 13 0.0 0.0 0.00 0.00 0.00 65 1015.5
20260507060008 40 13 0.0 0.0 0.00 0.00 0.00 64 1015.7
20260507054532 40 13 0.0 0.0 0.00 0.00 0.00 64 1015.7
20260507053014 40 13 0.0 0.0 0.00 0.00 0.00 63 1015.7
20260507051514 41 13 0.0 0.0 0.00 0.00 0.00 62 1015.9
20260507050043 41 13 0.0 0.0 0.00 0.00 0.00 61 1015.9
20260507044523 41 13 0.0 0.0 0.00 0.00 0.00 57 1016.0
20260507043019 42 13 0.0 0.0 0.00 0.00 0.00 56 1016.0
20260507040023 43 13 0.0 0.0 0.00 0.00 0.00 55 1016.2
20260507034524 43 13 0.0 0.0 0.00 0.00 0.00 53 1016.3
20260507033026 44 13 0.0 0.0 0.00 0.00 0.00 52 1016.4
20260507031515 45 13 0.0 0.0 0.00 0.00 0.00 50 1016.5
20260507030021 45 13 0.0 0.0 0.00 0.00 0.00 48 1016.6
20260507024504 46 13 0.0 0.0 0.00 0.00 0.00 46 1016.7
20260507023004 47 13 0.0 0.0 0.00 0.00 0.00 45 1016.6
20260507021512 48 13 0.0 0.0 0.00 0.00 0.00 42 1016.4
20260507020005 50 13 0.0 0.0 0.00 0.00 0.00 40 1016.3
20260507014503 51 13 0.0 0.0 0.00 0.00 0.00 38 1016.3
20260507013007 52 13 0.0 0.0 0.00 0.00 0.00 36 1016.2
20260507011514 53 13 0.0 0.0 0.00 0.00 0.00 33 1016.3
20260507010008 54 13 0.0 2.6 0.00 0.00 0.00 32 1016.2
20260507004504 54 13 0.0 3.5 0.00 0.00 0.00 31 1016.3
20260507003002 55 13 1.7 8.7 0.00 0.00 0.00 30 1016.3
20260507001506 55 13 0.9 7.0 0.00 0.00 0.00 30 1016.4
20260507000004 55 13 0.9 7.8 0.00 0.00 0.00 30 1016.5
20260506234504 56 13 1.7 5.2 0.00 0.00 0.00 31 1016.5
20260506233006 56 13 1.7 7.0 0.00 0.00 0.00 30 1016.6
20260506231506 56 13 0.9 5.2 0.00 0.00 0.00 31 1016.6
20260506230006 57 13 1.7 4.3 0.00 0.00 0.00 30 1016.8
20260506224507 57 13 0.9 4.3 0.00 0.00 0.00 29 1016.8
20260506223007 58 13 0.9 8.7 0.00 0.00 0.00 31 1016.9
20260506221507 58 13 0.9 8.7 0.00 0.00 0.00 30 1016.9
20260506220014 58 13 2.6 7.0 0.00 0.00 0.00 30 1016.9
20260506214511 57 13 1.7 8.7 0.00 0.00 0.00 32 1017.0
20260506213007 57 13 0.9 5.2 0.00 0.00 0.00 32 1017.0
20260506211507 57 13 1.7 7.8 0.00 0.00 0.00 30 1017.1
20260506210010 56 13 1.7 7.8 0.00 0.00 0.00 32 1017.3
20260506204511 57 13 1.7 8.7 0.00 0.00 0.00 29 1017.4
20260506203022 57 13 0.9 7.8 0.00 0.00 0.00 34 1017.4
20260506201509 57 13 0.9 7.0 0.00 0.00 0.00 33 1017.3
20260506200007 56 13 2.6 11.3 0.00 0.00 0.00 32 1017.7
20260506194512 56 13 0.9 11.3 0.00 0.00 0.00 35 1017.9